Location: Newark
(45.2500°N, 7.5833°E)
Time: 15:35:55
(UTC+00:00)

Tiros 1 despin weight - Pass Details

Date: 28 January 2020
Orbit: 594 x 642 km, 48.2° (Epoch: 24 February)

Event Time Altitude Azimuth Distance (km) Brightness Sun altitude
Rises 08:46:21 0° 206° (SSW) 2,831 ? 14.9°
Reaches altitude 10° 08:48:58 10° 192° (SSW) 1,939 ? 15.2°
Maximum altitude 08:52:30 23° 140° (SE) 1,290 ? 15.7°
Drops below altitude 10° 08:56:04 10° 87° (E) 1,970 ? 16.1°
Sets 08:58:45 0° 73° (ENE) 2,888 ? 16.4°
